Voltar ao catálogo

OPS 4682 DEB

AtivoPO
NORAD 55117·DEBRIS·🇺🇸 United States

Lançado Apr 3, 1965 de Vandenberg Space Force Base

Loading…

Próximas Passagens (próximas 24 horas)

TLE

AtualizadoSource: Space-Track

Época: Sep 13, 2026, 01:52 UTC

1 55117U 65027HG  26256.07825066  .00000223  00000-0  78333-3 0  9998
2 55117  90.2510  11.1493 0029165  10.7913 349.3825 12.93726547520288

Acompanhe OPS 4682 DEB em tempo real com AllMySat

Download on the App Store